DECAYED

STARLINK-1587, 46157 (Decayed)

Orbit data source: Space-Track

STARLINK-1587, 46157 was a payload satellite owned by SpaceX/Seattle (US) in LEO that was launched on Tue, 18 Aug 2020 UTC via an FALCON 9 launch vehicle from the Air Force Eastern Test Range (AFETR). Payload-class satellites include a variety of spacecraft equipped with specific instruments for various scientific and technological missions. These include communications satellites like Starlink; space stations such as the ISS; scientific satellites like the Hubble; Earth observation satellites from companies like Planet Labs, Umbra, and HawkEye 360; GPS; miniature CubeSats for education and research; and military/defense satellites.

Not visible in the next 10 days
Identifier
46157, 2020-057AS
Orbit
Decayed
Country
Flag of USUS
Related business
Manufacturer
SpaceX/Seattle
Mission
Decayed Commercial Communications
Bus & Motor
STARLINK, Unknown motor
Mass
260 kg wet, ~248 kg dry
Launch date (UTC)
2020-08-18 (6 years ago)
Launch vehicle
FALCON 9
Launch site
Air Force Eastern Test Range (AFETR)
Object type
Payload
Rocket body
Debris
Shape & HBR
Box + 1 Pan, 10.1 m
Radar Cross Section
13.562 m², Large (>1 m²)

Expand to show TLE details & history
Last TLE update: 5 months ago

TLE from 5 months ago
0 STARLINK-1587
1 46157U 20057AS  26081.60494785  .09504374  12350-4  10024-2 0  9993
2 46157  53.0153 148.6664 0005528 324.5132  35.5544 16.36810891309558
Epoch: 2026-03-22T14:31Z
TLE epoch observation values (Epoch: 2026-03-22T14:31:07.494Z)
Latitude
-0.00004°
Longitude
110.77623°
Altitude
172.278 km
Speed
7.806 km/s
True Right ascension
09h 54m 39s
True Declination
0° 00' 00"
Sunlit
Object was in full shadow at epoch
Visualization orbit readout
Latitude
Unknown
Longitude
Unknown
Altitude
Unknown
Speed
Unknown
Apparent Right ascension
Unknown
Apparent Declination
Unknown
Sunlit
N/A
Visualization observer readout
Local Sidereal Time
16:37:11
Azimuth
Unknown
Elevation
Unknown
Doppler factor
Unknown
Orbital elements
Apogee altitude
178.214 km
Perigee altitude
170.97 km
Semi-major axis
6,552.729 km
Eccentricity
0.00055
Inclination
53.0153°
RAAN
148.6664°
Arg. of periapsis
324.5132°
True anomaly
35.59125°
Mean anomaly
35.5544°
Eccentric anomaly
35.57283°
Mean motion
4.09176 °/min
Orbital period
87.98 mins
BSTAR
0.0010024
Loading maneuver chart data...
Computing Atmospheric mass density...

Documentation

Showing up to 5 results
|